Change the Weather History Date:

Friday, April 19, 2013

  Actual Average Record
Temperature  
Mean Temperature 84 °F 77 °F  
Max Temperature 87 °F 82 °F 89 °F (1934)
Min Temperature 80 °F 72 °F 60 °F (1997)
Degree Days  
Heating Degree Days 0 0  
Month to date heating degree days 0 0  
Since 1 July heating degree days 28 73  
Cooling Degree Days 19 12  
Month to date cooling degree days 282 205  
Year to date cooling degree days 978 815  
Growing Degree Days 34 (Base 50)    
Moisture  
Dew Point 73 °F    
Average Humidity 71    
Maximum Humidity 79    
Minimum Humidity 63    
Precipitation  
Precipitation 0.00 in 0.08 in 1.12 in (1939)
Month to date precipitation 1.43 1.33  
Year to date precipitation 5.17 6.91  
Snow  
Snow 0.00 in - - ()
Month to date snowfall 0.0  
Since 1 July snowfall 0.0  
Snow Depth 0.00 in    
Sea Level Pressure  
Sea Level Pressure 30.00 in    
Wind  
Wind Speed 14 mph (SE)    
Max Wind Speed 22 mph    
Max Gust Speed 28 mph    
Visibility 10 miles    
Events      
T = Trace of Precipitation, MM = Missing Value Source: NWS Daily Summary

Daily Weather History Graph

Daily Weather History Graph

Search for Another Location

Airport or City:

Trip Planner

Search our weather history database for the weather conditions in past years. The results will help you decide how hot, cold, wet, or windy it might be!

Date:

Astronomy

Apr. 19, 2013 Rise Set
Actual Time 7:01 AM EDT 7:51 PM EDT
Civil Twilight 6:37 AM EDT 8:14 PM EDT
Nautical Twilight 6:10 AM EDT 8:42 PM EDT
Astronomical Twilight 5:42 AM EDT 9:10 PM EDT
Moon 2:12 PM EDT (4/19) 2:36 AM EDT (4/19)
Length of Visible Light 13h 36m
Length of Day
12h 49m
First Quarter, 61% of the Moon is Illuminated
Apr 19
First Quarter
Apr 25
Full
May 2
Last Quarter
May 9
New
May 18
First Quarter

Hourly Weather History & Observations

Time (EDT) Temp. Heat Index Dew Point Humidity Pressure Visibility Wind Dir Wind Speed Gust Speed Precip Events Conditions
12:53 AM 81.0 °F 85.8 °F 73.0 °F 77% 30.00 in 10.0 mi SE 18.4 mph - N/A   Scattered Clouds
1:53 AM 81.0 °F 85.2 °F 72.0 °F 74% 29.99 in 10.0 mi SE 17.3 mph 25.3 mph N/A   Scattered Clouds
2:53 AM 81.0 °F 85.2 °F 72.0 °F 74% 29.98 in 10.0 mi SE 16.1 mph - N/A   Scattered Clouds
3:53 AM 81.0 °F 85.2 °F 72.0 °F 74% 29.97 in 10.0 mi SE 17.3 mph 25.3 mph N/A   Partly Cloudy
4:53 AM 80.1 °F 83.6 °F 71.1 °F 74% 29.97 in 10.0 mi SE 19.6 mph 25.3 mph N/A   Clear
5:53 AM 80.1 °F 83.6 °F 71.1 °F 74% 29.97 in 10.0 mi SE 18.4 mph - N/A   Partly Cloudy
6:53 AM 80.1 °F 83.8 °F 72.0 °F 76% 29.99 in 10.0 mi SE 15.0 mph - N/A   Partly Cloudy
7:53 AM 80.1 °F 83.8 °F 72.0 °F 76% 30.01 in 10.0 mi SE 16.1 mph - N/A   Clear
8:53 AM 81.0 °F 85.8 °F 73.0 °F 77% 30.01 in 10.0 mi SE 15.0 mph - N/A   Partly Cloudy
9:53 AM 82.9 °F 88.0 °F 72.0 °F 69% 30.02 in 10.0 mi SE 13.8 mph - N/A   Clear
10:53 AM 82.9 °F 88.8 °F 73.0 °F 72% 30.03 in 10.0 mi SE 13.8 mph - N/A   Clear
11:53 AM 84.0 °F 89.6 °F 72.0 °F 67% 30.03 in 10.0 mi SE 13.8 mph - N/A   Clear
12:53 PM 84.9 °F 92.1 °F 73.9 °F 69% 30.02 in 10.0 mi SE 12.7 mph - N/A   Clear
1:53 PM 86.0 °F 93.0 °F 73.0 °F 65% 30.01 in 10.0 mi ESE 16.1 mph - N/A   Clear
2:53 PM 87.1 °F 95.4 °F 73.9 °F 65% 30.00 in 10.0 mi ESE 12.7 mph - N/A   Clear
3:53 PM 84.9 °F 92.1 °F 73.9 °F 69% 29.98 in 10.0 mi ESE 17.3 mph - N/A   Clear
4:53 PM 84.9 °F 91.4 °F 73.0 °F 67% 29.97 in 10.0 mi SE 13.8 mph - N/A   Partly Cloudy
5:53 PM 84.0 °F 90.2 °F 73.0 °F 69% 29.96 in 10.0 mi ESE 11.5 mph - N/A   Clear
6:53 PM 82.9 °F 88.8 °F 73.0 °F 72% 29.96 in 10.0 mi ESE 10.4 mph - N/A   Clear
7:53 PM 81.0 °F 85.2 °F 72.0 °F 74% 29.97 in 10.0 mi ESE 11.5 mph - N/A   Clear
8:53 PM 81.0 °F 85.8 °F 73.0 °F 77% 30.00 in 10.0 mi ESE 12.7 mph - N/A   Clear
9:53 PM 81.0 °F 86.2 °F 73.9 °F 79% 30.04 in 10.0 mi SE 12.7 mph 18.4 mph N/A   Scattered Clouds
10:53 PM 81.0 °F 86.2 °F 73.9 °F 79% 30.04 in 10.0 mi SE 11.5 mph - N/A   Clear
11:53 PM 81.0 °F 86.2 °F 73.9 °F 79% 30.04 in 10.0 mi SSE 11.5 mph - N/A   Clear